STARLINK-34135, 63964

Orbit data source: Space-Track

STARLINK-34135, 63964 is a payload satellite owned by SpaceX/Seattle (US) in LEO that was launched on Tue, 13 May 2025 UTC via an FALCON 9 launch vehicle from the Air Force Eastern Test Range (AFETR). Payload-class satellites include a variety of spacecraft equipped with specific instruments for various scientific and technological missions. These include communications satellites like Starlink; space stations such as the ISS; scientific satellites like the Hubble; Earth observation satellites from companies like Planet Labs, Umbra, and HawkEye 360; GPS; miniature CubeSats for education and research; and military/defense satellites.

Loading next visibility...
Identifier
63964, 2025-099N
Orbit
LEO
Country
Flag of USUS
Related business
Manufacturer
SpaceX/Seattle
Mission
Operational Commercial Communications
Bus & Motor
STARLINK V2MO, Unknown motor
Mass
575 kg wet, ~530 kg dry
Launch date (UTC)
2025-05-13 (11 months ago)
Launch vehicle
FALCON 9
Launch site
Air Force Eastern Test Range (AFETR)
Object type
Payload
Rocket body
Debris
Shape & HBR
Box + 2 Pan, 17.7 m
Radar Cross Section
36.964 m², Large (>1 m²)

Expand to show TLE details & history
Last TLE update: 1 day ago

TLE from 1 day ago
0 STARLINK-34135
1 63964U 25099N   26093.25111720  .00044139  00000-0  16011-2 0  9994
2 63964  43.0024  37.4222 0001578 265.2350  94.8321 15.27637156 51092
Epoch: 2026-04-03T06:01Z
TLE epoch observation values (Epoch: 2026-04-03T06:01:36.526Z)
Latitude
-0.00004°
Longitude
115.43204°
Altitude
482.745 km
Speed
7.626 km/s
True Right ascension
02h 29m 41s
True Declination
0° 00' 00"
Sunlit
Object was in daylight at epoch
Visualization orbit readout
Latitude
Unknown
Longitude
Unknown
Altitude
Unknown
Speed
Unknown
Apparent Right ascension
Unknown
Apparent Declination
Unknown
Sunlit
N/A
Visualization observer readout
Local Sidereal Time
18:20:48
Azimuth
Unknown
Elevation
Unknown
Doppler factor
Unknown
Orbital elements
Apogee altitude
485.906 km
Perigee altitude
483.74 km
Semi-major axis
6,862.96 km
Eccentricity
0.00016
Inclination
43.0024°
RAAN
37.4222°
Arg. of periapsis
265.235°
True anomaly
94.85012°
Mean anomaly
94.8321°
Eccentric anomaly
94.84111°
Mean motion
3.81747 °/min
Orbital period
94.3 mins
BSTAR
0.0016011
Loading maneuver chart data...
Computing Atmospheric mass density...
Loading historical data...
Loading historical data...
Loading historical data...
Loading historical data...
Loading historical data...
Loading historical data...
Loading historical data...

Documentation

Showing up to 5 results
|